METOP-A

导读

METOP-A是欧洲气象卫星开发组织(EUMETSAT,缩写EUME)主导研发的极轨气象卫星,于2006年10月19日发射升空,属于欧洲第一代MetOp气象卫星系列的首星。该卫星运行在太阳同步轨道,搭载多类先进探测仪器,可获取全球大气温度、湿度等气象参数,为数值天气预报、气候监测与气候变化研究提供高精度观测数据,支撑提升天气预测准确度,服务气象业务与科学研究,是欧洲极地轨道气象观测体系的重要开篇。

基本信息
目录编号:
29499
目录名称:
METOP-A
国际标识:
2006-044A
轨道中心:
EARTH
卫星名称:
METOP-A
卫星全名:
--
卫星状态:
在轨 (已飞行7260 天)
发射日期:
2006-10-19 UTC
国别 :
(EUME)
星等 :
--
轨道信息
数据来源 国际轨道数据
星历时间: 2026-09-04T21:46:41+0800
10小时前
查看轨道信息
半长轴: 7019.563km
偏心率: 0.01735
轨道倾角: 98.338°
近地点辐角 175.825°
升交点赤经 356.800°
平近点角 247.717°
近地点: 519.636km
远地点: 763.216km
周期: 97.549分钟
每日圈数: 14.761745
详细信息
使用方式:
暂无
2D轨道图
3D轨道图
轨道高度分析图
轨道倾角分析图
轨道综合分析图
查看轨道综合分析图
交会数据列表
事件ID 空间交会对象 最接近时刻(TCA) 交会距离 交会风险概率(CRP) 交会风险指数(CRI) 操作
CDM_260907-115602-949905-576621
METOP-A (29499)
2026-09-07T
11:56:32+0000
2.586 km
极远距离
1.573944E-6 低风险 0.39